| time (UTC) | temp F | wind direction | speed MPH | gust MPH | rain 1hr in | rain 24hr in | rain mn in | humidity % | barometer mb |
| 20260903091344 | 65 | 244 | 0.0 | 0.0 | 0.00 | 0.00 | 0.00 | 40 | 1019.6 |
| 20260903090344 | 66 | 219 | 0.0 | 0.0 | 0.00 | 0.00 | 0.00 | 40 | 1019.3 |
| 20260903085343 | 66 | 231 | 0.0 | 0.0 | 0.00 | 0.00 | 0.00 | 40 | 1019.0 |
| 20260903084345 | 66 | 235 | 0.0 | 0.0 | 0.00 | 0.00 | 0.00 | 40 | 1019.2 |
| 20260903083343 | 65 | 212 | 0.0 | 0.0 | 0.00 | 0.00 | 0.00 | 40 | 1019.3 |
| 20260903082358 | 65 | 226 | 0.0 | 0.0 | 0.00 | 0.00 | 0.00 | 40 | 1019.3 |
| 20260903081443 | 65 | 233 | 0.0 | 0.0 | 0.00 | 0.00 | 0.00 | 40 | 1019.2 |
| 20260903080443 | 64 | 205 | 0.0 | 0.0 | 0.00 | 0.00 | 0.00 | 40 | 1019.3 |
| 20260903074458 | 64 | 210 | 0.0 | 0.0 | 0.00 | 0.00 | 0.00 | 40 | 1019.6 |
| 20260903073443 | 63 | 215 | 0.0 | 0.0 | 0.00 | 0.00 | 0.00 | 40 | 1019.4 |
| 20260903072444 | 63 | 207 | 0.0 | 0.0 | 0.00 | 0.00 | 0.00 | 41 | 1019.3 |
| 20260903071459 | 63 | 214 | 0.0 | 0.0 | 0.00 | 0.00 | 0.00 | 41 | 1019.5 |
| 20260903070545 | 62 | 208 | 0.0 | 0.0 | 0.00 | 0.00 | 0.00 | 41 | 1019.6 |
| 20260903064544 | 62 | 207 | 0.0 | 0.0 | 0.00 | 0.00 | 0.00 | 41 | 1019.4 |
| 20260903063543 | 62 | 209 | 0.0 | 0.0 | 0.00 | 0.00 | 0.00 | 41 | 1019.4 |
| 20260903062546 | 62 | 223 | 0.0 | 0.0 | 0.00 | 0.00 | 0.00 | 41 | 1019.9 |
| 20260903061644 | 63 | 219 | 0.0 | 0.0 | 0.00 | 0.00 | 0.00 | 41 | 1019.8 |
| 20260903060645 | 63 | 209 | 0.0 | 0.0 | 0.00 | 0.00 | 0.00 | 41 | 1019.9 |
| 20260903055642 | 63 | 223 | 0.0 | 0.0 | 0.00 | 0.00 | 0.00 | 41 | 1019.9 |
| 20260903054644 | 63 | 246 | 0.0 | 0.0 | 0.00 | 0.00 | 0.00 | 41 | 1020.0 |
| 20260903053645 | 62 | 219 | 0.0 | 0.0 | 0.00 | 0.00 | 0.00 | 41 | 1020.0 |
| 20260903052643 | 62 | 242 | 0.0 | 0.0 | 0.00 | 0.00 | 0.00 | 40 | 1019.9 |
| 20260903045759 | 62 | 215 | 0.0 | 0.0 | 0.00 | 0.00 | 0.00 | 40 | 1019.7 |
| 20260903044744 | 62 | 206 | 0.0 | 0.0 | 0.00 | 0.00 | 0.00 | 40 | 1019.6 |
| 20260903043744 | 62 | 208 | 0.0 | 0.0 | 0.00 | 0.00 | 0.00 | 40 | 1019.9 |
| 20260903042745 | 62 | 215 | 0.0 | 0.0 | 0.00 | 0.00 | 0.00 | 40 | 1019.8 |
| 20260903041746 | 62 | 214 | 0.0 | 0.0 | 0.00 | 0.00 | 0.00 | 40 | 1020.1 |
| 20260903040844 | 62 | 205 | 0.0 | 0.0 | 0.00 | 0.00 | 0.00 | 40 | 1019.9 |
| 20260903035844 | 62 | 210 | 0.0 | 0.0 | 0.00 | 0.00 | 0.00 | 40 | 1019.9 |
| 20260903034845 | 62 | 204 | 0.0 | 0.0 | 0.00 | 0.00 | 0.00 | 40 | 1020.1 |
| 20260903033844 | 62 | 199 | 0.0 | 0.0 | 0.00 | 0.00 | 0.00 | 40 | 1020.1 |
| 20260903032942 | 62 | 201 | 0.0 | 0.0 | 0.00 | 0.00 | 0.00 | 40 | 1020.3 |
| 20260903031944 | 62 | 201 | 0.0 | 0.0 | 0.00 | 0.00 | 0.00 | 39 | 1020.4 |
| 20260903025944 | 61 | 209 | 0.0 | 0.0 | 0.00 | 0.00 | 0.00 | 41 | 1020.6 |
| 20260903025043 | 61 | 204 | 0.0 | 0.0 | 0.00 | 0.00 | 0.00 | 41 | 1020.6 |
| 20260903023143 | 61 | 218 | 0.0 | 0.0 | 0.00 | 0.00 | 0.00 | 41 | 1020.7 |
| 20260903022145 | 62 | 203 | 0.0 | 0.0 | 0.00 | 0.00 | 0.00 | 40 | 1020.6 |
| 20260903021243 | 62 | 208 | 0.0 | 0.0 | 0.00 | 0.00 | 0.00 | 40 | 1020.7 |
| 20260903015344 | 62 | 206 | 0.0 | 0.0 | 0.00 | 0.00 | 0.00 | 40 | 1021.0 |
| 20260903014359 | 62 | 206 | 0.0 | 0.0 | 0.00 | 0.00 | 0.00 | 40 | 1021.4 |
| 20260903013444 | 62 | 201 | 0.0 | 0.0 | 0.00 | 0.00 | 0.00 | 40 | 1021.3 |
| 20260903012543 | 62 | 196 | 0.0 | 0.0 | 0.00 | 0.00 | 0.00 | 40 | 1021.4 |
| 20260903011544 | 62 | 213 | 0.0 | 0.0 | 0.00 | 0.00 | 0.00 | 41 | 1021.6 |
| 20260903010642 | 62 | 203 | 0.0 | 0.0 | 0.00 | 0.00 | 0.00 | 41 | 1021.6 |
| 20260903004744 | 61 | 202 | 0.0 | 0.0 | 0.00 | 0.00 | 0.00 | 41 | 1021.7 |
| 20260903003844 | 61 | 198 | 0.0 | 0.0 | 0.00 | 0.00 | 0.00 | 40 | 1021.8 |
| 20260903002844 | 61 | 201 | 0.0 | 0.0 | 0.00 | 0.00 | 0.00 | 41 | 1022.1 |
| 20260903001846 | 61 | 194 | 0.0 | 0.0 | 0.00 | 0.00 | 0.00 | 41 | 1022.0 |
| 20260903000845 | 61 | 202 | 0.0 | 0.0 | 0.00 | 0.00 | 0.00 | 41 | 1022.0 |
| 20260902235842 | 61 | 196 | 0.0 | 0.0 | 0.00 | 0.00 | 0.00 | 41 | 1022.2 |
| 20260902234843 | 61 | 189 | 0.0 | 0.0 | 0.00 | 0.00 | 0.00 | 41 | 1022.2 |
| 20260902233845 | 61 | 157 | 0.0 | 0.0 | 0.00 | 0.00 | 0.00 | 41 | 1022.4 |
| 20260902232943 | 60 | 152 | 0.0 | 0.0 | 0.00 | 0.00 | 0.00 | 41 | 1022.5 |
| 20260902232043 | 60 | 180 | 0.0 | 0.0 | 0.00 | 0.00 | 0.00 | 41 | 1022.6 |
| 20260902231045 | 60 | 202 | 0.0 | 0.0 | 0.00 | 0.00 | 0.00 | 41 | 1022.8 |
| 20260902230143 | 60 | 145 | 0.0 | 0.0 | 0.00 | 0.00 | 0.00 | 41 | 1022.8 |
| 20260902224259 | 60 | 180 | 0.0 | 0.0 | 0.00 | 0.00 | 0.00 | 41 | 1023.1 |
| 20260902223243 | 60 | 188 | 0.0 | 0.0 | 0.00 | 0.00 | 0.00 | 40 | 1023.1 |
| 20260902222242 | 60 | 225 | 0.0 | 0.0 | 0.00 | 0.00 | 0.00 | 41 | 1023.4 |
| 20260902221341 | 61 | 225 | 0.0 | 0.0 | 0.00 | 0.00 | 0.00 | 41 | 1023.4 |
| 20260902220345 | 61 | 202 | 0.0 | 0.0 | 0.00 | 0.00 | 0.00 | 41 | 1023.4 |
| 20260902215421 | 61 | 202 | 0.0 | 0.0 | 0.00 | 0.00 | 0.00 | 40 | 1023.5 |
| 20260902214424 | 62 | 205 | 0.0 | 0.0 | 0.00 | 0.00 | 0.00 | 40 | 1023.5 |
| 20260902213522 | 62 | 202 | 0.0 | 0.0 | 0.00 | 0.00 | 0.00 | 40 | 1023.4 |
| 20260902212522 | 62 | 199 | 0.0 | 0.0 | 0.00 | 0.00 | 0.00 | 40 | 1023.4 |
| 20260902211523 | 62 | 200 | 0.0 | 0.0 | 0.00 | 0.00 | 0.00 | 40 | 1023.5 |
| 20260902210522 | 62 | 202 | 0.0 | 0.0 | 0.00 | 0.00 | 0.00 | 40 | 1023.5 |
| 20260902205523 | 62 | 201 | 0.0 | 0.0 | 0.00 | 0.00 | 0.00 | 40 | 1023.6 |
| 20260902204522 | 62 | 201 | 0.0 | 0.0 | 0.00 | 0.00 | 0.00 | 40 | 1023.6 |
| 20260902203523 | 62 | 201 | 0.0 | 0.0 | 0.00 | 0.00 | 0.00 | 40 | 1023.6 |
| 20260902202621 | 62 | 199 | 0.0 | 0.0 | 0.00 | 0.00 | 0.00 | 40 | 1023.6 |
| 20260902201622 | 62 | 202 | 0.0 | 0.0 | 0.00 | 0.00 | 0.00 | 40 | 1023.8 |
| 20260902200622 | 62 | 199 | 0.0 | 0.0 | 0.00 | 0.00 | 0.00 | 40 | 1023.8 |
| 20260902195721 | 62 | 214 | 0.0 | 0.0 | 0.00 | 0.00 | 0.00 | 40 | 1024.0 |
| 20260902193722 | 62 | 202 | 0.0 | 0.0 | 0.00 | 0.00 | 0.00 | 40 | 1024.0 |
| 20260902192722 | 62 | 205 | 0.0 | 0.0 | 0.00 | 0.00 | 0.00 | 40 | 1024.0 |
| 20260902191722 | 62 | 202 | 0.0 | 0.0 | 0.00 | 0.00 | 0.00 | 40 | 1024.0 |
| 20260902185724 | 63 | 225 | 0.0 | 0.0 | 0.00 | 0.00 | 0.00 | 40 | 1024.0 |
| 20260902184722 | 63 | 221 | 0.0 | 0.0 | 0.00 | 0.00 | 0.00 | 40 | 1024.0 |
| 20260902183739 | 63 | 189 | 0.0 | 0.0 | 0.00 | 0.00 | 0.00 | 40 | 1023.9 |
| 20260902182723 | 63 | 225 | 0.0 | 0.0 | 0.00 | 0.00 | 0.00 | 39 | 1024.0 |
| 20260902181724 | 63 | 225 | 0.0 | 0.0 | 0.00 | 0.00 | 0.00 | 39 | 1023.8 |
| 20260902180722 | 64 | 233 | 0.0 | 0.0 | 0.00 | 0.00 | 0.00 | 39 | 1023.8 |
| 20260902175739 | 64 | 234 | 0.0 | 0.0 | 0.00 | 0.00 | 0.00 | 39 | 1023.7 |
| 20260902174821 | 64 | 202 | 0.0 | 0.0 | 0.00 | 0.00 | 0.00 | 39 | 1023.7 |
| 20260902173823 | 64 | 247 | 0.0 | 0.0 | 0.00 | 0.00 | 0.00 | 39 | 1023.7 |
| 20260902171822 | 64 | 202 | 0.0 | 0.0 | 0.00 | 0.00 | 0.00 | 39 | 1023.8 |
| 20260902165922 | 64 | 247 | 0.0 | 0.0 | 0.00 | 0.00 | 0.00 | 39 | 1023.8 |
| 20260902164923 | 64 | 237 | 0.0 | 0.0 | 0.00 | 0.00 | 0.00 | 39 | 1023.7 |
| 20260902163923 | 65 | 202 | 0.0 | 0.0 | 0.00 | 0.00 | 0.00 | 39 | 1023.6 |
| 20260902162924 | 65 | 263 | 0.0 | 0.0 | 0.00 | 0.00 | 0.00 | 39 | 1023.8 |
| 20260902161923 | 65 | 203 | 0.0 | 0.0 | 0.00 | 0.00 | 0.00 | 39 | 1023.8 |
| 20260902160923 | 65 | 215 | 0.0 | 0.0 | 0.00 | 0.00 | 0.00 | 38 | 1023.9 |
| 20260902155023 | 66 | 211 | 0.0 | 0.0 | 0.00 | 0.00 | 0.00 | 37 | 1024.0 |
| 20260902154122 | 66 | 223 | 0.0 | 0.0 | 0.00 | 0.00 | 0.00 | 38 | 1023.9 |
| 20260902153122 | 66 | 232 | 0.0 | 0.0 | 0.00 | 0.00 | 0.00 | 38 | 1024.0 |
| 20260902145122 | 66 | 247 | 0.0 | 0.0 | 0.00 | 0.00 | 0.00 | 38 | 1024.1 |
| 20260902142221 | 67 | 246 | 0.0 | 0.0 | 0.00 | 0.00 | 0.00 | 39 | 1024.0 |
| 20260902141225 | 67 | 248 | 0.0 | 0.0 | 0.00 | 0.00 | 0.00 | 38 | 1024.0 |
| 20260902140322 | 68 | 253 | 0.0 | 0.0 | 0.00 | 0.00 | 0.00 | 38 | 1024.0 |
| 20260902135322 | 68 | 273 | 0.0 | 0.0 | 0.00 | 0.00 | 0.00 | 38 | 1023.8 |
| 20260902134322 | 68 | 257 | 0.0 | 0.0 | 0.00 | 0.00 | 0.00 | 38 | 1023.8 |
| 20260902133322 | 67 | 255 | 0.0 | 0.0 | 0.00 | 0.00 | 0.00 | 38 | 1023.9 |
| 20260902132323 | 68 | 267 | 0.0 | 0.0 | 0.00 | 0.00 | 0.00 | 38 | 1023.8 |
| 20260902132222 | 68 | 250 | 0.0 | 0.0 | 0.00 | 0.00 | 0.00 | 38 | 1023.9 |
| 20260902131223 | 67 | 293 | 0.0 | 0.0 | 0.00 | 0.00 | 0.00 | 38 | 1023.9 |
| 20260902130221 | 68 | 250 | 0.0 | 0.0 | 0.00 | 0.00 | 0.00 | 38 | 1023.8 |
| 20260902125225 | 69 | 241 | 0.0 | 0.0 | 0.00 | 0.00 | 0.00 | 38 | 1023.8 |
| 20260902124322 | 68 | 244 | 0.0 | 0.0 | 0.00 | 0.00 | 0.00 | 37 | 1023.8 |
| 20260902123320 | 66 | 246 | 0.0 | 0.0 | 0.00 | 0.00 | 0.00 | 38 | 1023.9 |
| 20260902122322 | 66 | 232 | 0.0 | 0.0 | 0.00 | 0.00 | 0.00 | 38 | 1023.9 |
| 20260902121322 | 66 | 243 | 0.0 | 0.0 | 0.00 | 0.00 | 0.00 | 39 | 1024.0 |
| 20260902120322 | 66 | 227 | 0.0 | 0.0 | 0.00 | 0.00 | 0.00 | 39 | 1024.0 |
| 20260902120222 | 66 | 239 | 0.0 | 0.0 | 0.00 | 0.00 | 0.00 | 39 | 1024.1 |
| 20260902114222 | 67 | 233 | 0.0 | 0.0 | 0.00 | 0.00 | 0.00 | 39 | 1024.0 |
| 20260902113222 | 68 | 246 | 0.0 | 0.0 | 0.00 | 0.00 | 0.00 | 39 | 1024.0 |
| 20260902112222 | 68 | 256 | 0.0 | 0.0 | 0.00 | 0.00 | 0.00 | 37 | 1023.9 |
| 20260902110223 | 68 | 218 | 0.0 | 0.0 | 0.00 | 0.00 | 0.00 | 37 | 1024.0 |
| 20260902105222 | 68 | 242 | 0.0 | 0.0 | 0.00 | 0.00 | 0.00 | 39 | 1024.0 |
| 20260902104320 | 69 | 207 | 0.0 | 0.0 | 0.00 | 0.00 | 0.00 | 38 | 1024.0 |
| 20260902103322 | 69 | 235 | 0.0 | 0.0 | 0.00 | 0.00 | 0.00 | 38 | 1024.0 |
| 20260902102321 | 69 | 223 | 0.0 | 0.0 | 0.00 | 0.00 | 0.00 | 38 | 1024.1 |
| 20260902101322 | 69 | 238 | 0.0 | 0.0 | 0.00 | 0.00 | 0.00 | 38 | 1024.0 |
| 20260902100324 | 69 | 217 | 0.0 | 0.0 | 0.00 | 0.00 | 0.00 | 38 | 1024.0 |
| 20260902095322 | 68 | 194 | 0.0 | 0.0 | 0.00 | 0.00 | 0.00 | 38 | 1024.0 |
| 20260902094324 | 68 | 223 | 0.0 | 0.0 | 0.00 | 0.00 | 0.00 | 38 | 1024.1 |
| 20260902093323 | 68 | 220 | 0.0 | 0.0 | 0.00 | 0.00 | 0.00 | 38 | 1024.2 |